[[{"header":{"parameterUnit":"m.s-1","parameterCategory":1,"la1":30.2992,"la2":30.254,"lo1":-89.0895,"lo2":-89.0443,"dy":0.0025,"dx":0.0025,"nx":19,"ny":19,"refTime":"2026-05-14T03:00:00:Z","depth":0,"parameterNumber":2,"parameterNumberName":"U-component_of_WINDS"},"data":[0,0,0,0.3803,0.3806,0.3945,0.3945,0.4118,0.4119,0,0,0,0,0,0,0,0,0,0,0,0.3757,0.3758,0.3803,0.3806,0.3945,0.3945,0.4117,0.4119,0,0,0,0,0,0,0,0,0,0,0,0.3756,0.3757,0.3759,0.3807,0.3944,0.3945,0.4117,0.4015,0,0,0,0,0,0,0,0,0,0,0.3882,0.3832,0.3757,0.3759,0.3808,0.3944,0.3945,0.401,0.4021,0.4052,0,0.4075,0,0.41,0.413,0.413,0,0,0,0.3811,0.3823,0.3865,0.3759,0.3809,0.3944,0.3884,0.4016,0.4029,0.4067,0.4078,0.4084,0.4102,0.4131,0.4132,0.4286,0.4287,0,0,0.3804,0.3779,0.3856,0.3873,0.3848,0.3879,0.3888,0.4024,0.4036,0.4078,0.4088,0.4105,0.4132,0.4133,0.4286,0.4287,0,0,0,0.3779,0.3774,0.3813,0.3865,0.3891,0.3883,0.3893,0.403,0.4044,0.409,0.4107,0.4133,0.4135,0.4285,0.4286,0.4285,0,0,0,0.3774,0.3759,0.3809,0.3795,0.3888,0.3961,0.3895,0.4035,0.4051,0.4106,0.4133,0.4137,0.4285,0.4286,0.4284,0.4289,0,0,0,0.375,0.3756,0.3774,0.3794,0.3852,0.3959,0.3982,0.4039,0.4061,0.4131,0.4137,0.4285,0.4286,0.4283,0.4288,0.4323,0,0,0,0.3717,0.3772,0.3773,0.3841,0.3851,0.3957,0.3982,0.4063,0.4122,0.4134,0.4285,0.4286,0.4283,0.4287,0.4321,0.4347,0.4356,0,0,0.3772,0.3777,0.382,0.3825,0.3924,0.3938,0.4039,0.4118,0.4149,0.424,0.4244,0.4285,0.4288,0.4322,0.4411,0.4417,0,0,0,0.3829,0.3859,0.3891,0.3945,0.4006,0.4059,0.4125,0.4155,0.4233,0.4189,0.4308,0.431,0.4332,0.4345,0.4351,0.4371,0.4291,0.4291,0.4291,0.3871,0.3906,0.3979,0.4031,0.4084,0.4152,0.4199,0.4251,0.4272,0.4299,0.4326,0.4375,0.439,0.4395,0.4415,0.4343,0.4343,0.4343,0.4343,0.3956,0.4004,0.403,0.4109,0.4147,0.4215,0.4284,0.4297,0.4368,0.4358,0.4379,0.4364,0.44,0.4421,0.4343,0.4343,0.4343,0.4343,0.4343,0.3987,0.4016,0.405,0.4134,0.4195,0.4247,0.4313,0.4346,0.4378,0.4398,0.4431,0.4431,0.4435,0.4412,0.4412,0.4412,0.4412,0.4412,0.4412,0.4006,0.4044,0.4095,0.4165,0.4205,0.4262,0.4332,0.4374,0.4428,0.4447,0.4447,0.4466,0.4397,0.4379,0.4415,0.4415,0.4414,0.4414,0.4414,0.4077,0.4066,0.4144,0.4184,0.427,0.4329,0.4371,0.4452,0.4492,0.4524,0.4539,0.4482,0.449,0.4486,0.4472,0.453,0.453,0.453,0.453,0.4103,0.411,0.4198,0.426,0.4325,0.4371,0.4461,0.4517,0.4574,0.4601,0.4598,0.4581,0.4576,0.4587,0.4581,0.4568,0.465,0.465,0.465,0.4149,0.4165,0.4233,0.4287,0.4357,0.4417,0.4503,0.4576,0.4639,0.4655,0.4623,0.4618,0.4592,0.4581,0.4596,0.4586,0.4562,0,0]},{"header":{"parameterUnit":"m.s-1","parameterCategory":1,"la1":30.2992,"la2":30.254,"lo1":-89.0895,"lo2":-89.0443,"dy":0.0025,"dx":0.0025,"nx":19,"ny":19,"refTime":"2026-05-14T03:00:00:Z","depth":0,"parameterNumber":3,"parameterNumberName":"V-component_of_WINDS"},"data":[0,0,0,-0.1009,-0.1007,-0.0904,-0.0904,-0.0754,-0.0753,0,0,0,0,0,0,0,0,0,0,0,-0.1027,-0.1025,-0.1009,-0.1006,-0.0904,-0.0904,-0.0755,-0.0753,0,0,0,0,0,0,0,0,0,0,0,-0.1028,-0.1026,-0.1024,-0.1006,-0.0905,-0.0904,-0.0755,-0.0839,0,0,0,0,0,0,0,0,0,0,-0.0941,-0.0945,-0.1026,-0.1024,-0.1005,-0.0905,-0.0904,-0.0843,-0.0834,-0.0792,0,-0.0751,0,-0.0749,-0.0741,-0.0741,0,0,0,-0.1016,-0.0953,-0.0937,-0.1024,-0.1004,-0.0905,-0.0953,-0.0838,-0.0827,-0.0779,-0.0749,-0.0744,-0.0747,-0.074,-0.0739,-0.0467,-0.0465,0,0,-0.1021,-0.1002,-0.0945,-0.0929,-0.0943,-0.0956,-0.095,-0.0832,-0.0798,-0.0749,-0.0741,-0.0744,-0.0739,-0.0738,-0.0469,-0.0466,0,0,0,-0.1031,-0.1005,-0.0993,-0.0935,-0.0918,-0.0953,-0.0946,-0.0803,-0.0801,-0.074,-0.0743,-0.0738,-0.0736,-0.047,-0.0468,-0.0363,0,0,0,-0.1035,-0.1011,-0.0994,-0.0981,-0.092,-0.0859,-0.0919,-0.0809,-0.0796,-0.0743,-0.0738,-0.0734,-0.0472,-0.0469,-0.037,-0.0316,0,0,0,-0.1038,-0.1012,-0.0993,-0.0981,-0.0936,-0.0862,-0.0853,-0.0807,-0.0797,-0.0741,-0.0734,-0.0474,-0.047,-0.0376,-0.0326,-0.0237,0,0,0,-0.1035,-0.0901,-0.0991,-0.0843,-0.0937,-0.0798,-0.0854,-0.0751,-0.069,-0.0737,-0.0472,-0.0468,-0.0378,-0.0332,-0.0243,-0.0157,-0.0119,0,0,-0.0855,-0.0879,-0.0794,-0.0871,-0.0711,-0.0815,-0.064,-0.0603,-0.0616,-0.0516,-0.051,-0.0367,-0.0327,-0.0238,0.0079,0.0109,0,0,0,-0.073,-0.0668,-0.063,-0.0571,-0.0539,-0.0507,-0.0499,-0.0486,-0.0402,-0.0561,-0.0313,-0.029,-0.0238,-0.0198,-0.0172,-0.0129,-0.0449,-0.045,-0.045,-0.0445,-0.0469,-0.0329,-0.0341,-0.0283,-0.0277,-0.0232,-0.0213,-0.0254,-0.0195,-0.0165,0.0031,0.0079,0.0098,0.0143,-0.0123,-0.0123,-0.0122,-0.0122,-0.0182,-0.0097,-0.0157,-0.0042,-0.0068,0.0027,0.0038,0.0005,0.0091,0.0006,0.005,-0.0039,0.0132,0.017,-0.0114,-0.0116,-0.0117,-0.0117,-0.0118,0.0004,0.004,0.0054,0.0137,0.0203,0.0185,0.027,0.0241,0.0216,0.0259,0.0289,0.0287,0.0283,0.0274,0.0275,0.0276,0.0276,0.0277,0.0277,0.0193,0.0205,0.028,0.0324,0.0357,0.0399,0.0405,0.0437,0.0466,0.0439,0.0439,0.0393,0.0152,0.0093,0.0288,0.0286,0.0284,0.0283,0.0283,0.0474,0.0405,0.0522,0.0556,0.0604,0.0672,0.0634,0.0702,0.0725,0.0768,0.0711,0.0536,0.051,0.049,0.0441,0.0714,0.0714,0.0714,0.0714,0.0633,0.0616,0.0729,0.0785,0.0836,0.0813,0.0946,0.0951,0.0946,0.0958,0.0913,0.0846,0.0826,0.0812,0.0784,0.0739,0.1082,0.1082,0.1082,0.0805,0.0791,0.0911,0.0904,0.0939,0.097,0.1094,0.1161,0.114,0.1097,0.0967,0.0952,0.0842,0.0807,0.0765,0.0723,0.0639,0,0]}]]